Cloud_Cover
8 8 5 40 73 8 83 40 21 0 0 0 0 0 0 0 0 0 0 2 43 5 4 5 2 0 0 0 0 0 4 4 5 5 0 0 0 0 0 0 0 0 0 0 0
9 9 14 0 6 25 43 96 11 5 1 0 0 0 0 0 0 0 0 1 5 4 5 5 5 5 5 5 5 5 5 5 1 0 0 0 0 0 0 0 0 0 0 0 0
0 3 0 0 64 13 68 89 5 4 5 0 0 0 0 0 0 0 0 0 5 1 5 5 5 5 5 5 5 5 5 0 0 0 0 0 0 0 0 0 0 0 0 0 0
10 3 2 5 5 5 100 100 5 5 5 0 0 0 0 0 0 0 0 0 0 0 0 0 0 0 4 2 0 0 0 0 0 0 0 0 0 0 0 0 0 0 0 0 0
0 0 0 3 26 5 90 100 99 5 5 0 0 0 0 0 0 0 0 0 0 0 0 0 0 0 0 0 0 0 0 0 0 0 0 0 0 0 0 0 0 0 0 0 0
0 0 0 0 15 88 100 100 100 98 5 5 3 0 0 0 0 0 0 0 0 0 0 0 0 0 0 0 0 0 0 0 0 0 0 0 0 0 0 0 0 0 0 0 0
0 0 0 0 0 99 100 100 100 100 10 5 3 5 0 0 0 0 0 0 0 0 0 0 0 0 0 0 0 0 0 0 0 0 0 0 0 0 0 0 0 0 0 0 0
0 0 0 0 0 17 100 100 100 8 40 35 5 5 7 0 0 0 0 0 0 0 0 0 0 0 0 0 0 0 0 0 0 0 0 0 0 0 0 0 0 0 0 0 0
0 0 0 0 0 0 83 100 99 100 57 71 13 5 8 5 0 0 0 0 0 0 0 0 0 0 0 0 0 0 0 0 0 0 0 0 0 0 0 0 0 0 0 0 0
0 0 0 0 0 0 3 100 97 16 79 82 100 43 8 7 3 0 0 0 0 0 0 0 0 0 0 0 0 0 0 0 0 0 0 0 0 0 0 0 0 0 0 0 0
11 0 0 0 0 0 0 63 76 9 19 100 52 100 100 8 5 0 0 0 0 0 0 0 0 0 0 0 0 0 0 0 0 0 0 0 0 0 0 0 0 0 0 0 0
75 0 0 0 0 0 0 5 100 100 37 12 48 99 100 98 5 1 0 0 0 0 0 0 0 0 0 0 0 0 0 0 0 0 0 0 0 0 0 0 0 0 0 0 0
100 62 0 0 0 0 0 2 25 55 75 11 6 98 100 100 35 5 0 0 0 0 0 0 0 0 0 0 0 0 0 0 0 0 0 0 0 0 0 0 0 0 0 0 0
72 79 2 0 0 0 0 5 49 63 58 38 11 59 99 100 42 5 0 0 0 0 0 0 0 0 0 0 4 1 0 0 0 0 5 5 0 0 0 5 1 0 0 0 0
90 84 7 0 0 0 0 3 23 96 100 100 99 65 99 100 54 5 0 0 0 0 0 0 0 0 1 5 2 0 0 0 4 5 5 0 0 0 0 0 0 0 0 0 0
100 90 14 4 0 0 0 0 0 0 23 9 5 5 1 100 66 5 2 0 0 0 0 0 0 0 5 5 0 0 0 1 5 1 2 0 0 0 0 0 5 4 0 0 0
100 100 78 48 5 0 0 0 0 0 0 0 0 0 0 1 66 21 0 0 0 0 0 0 0 0 0 0 0 2 2 5 5 0 0 0 0 0 0 5 6 13 5 1 0
100 100 100 32 78 5 3 0 0 0 0 0 0 0 0 0 16 3 0 0 0 0 0 0 0 0 0 0 0 5 5 5 5 0 0 0 0 5 5 5 5 64 57 5 0
100 100 100 100 86 33 2 0 0 0 0 0 0 0 0 4 19 0 0 0 0 0 0 0 2 0 0 0 5 5 1 3 0 1 1 4 4 5 5 7 91 27 5 5 0
100 100 82 100 100 78 9 5 0 0 0 0 0 0 0 0 0 0 0 0 0 0 0 0 0 0 2 0 2 0 0 0 0 5 5 5 19 38 75 15 5 5 5 3 0
100 100 99 68 100 99 100 8 3 0 0 0 0 0 0 0 0 0 0 0 0 0 0 0 0 0 0 1 0 0 0 5 5 5 5 5 7 12 5 5 5 5 0 0 0
100 100 100 100 100 100 100 6 6 0 0 0 0 0 0 0 0 0 0 0 0 0 0 0 0 0 0 0 0 0 4 4 5 5 5 5 44 60 9 5 5 5 5 5 5
100 100 100 100 100 100 100 34 5 5 0 0 0 0 0 0 0 0 0 0 0 0 0 1 3 4 0 0 0 0 0 1 5 5 5 5 12 17 5 5 5 5 5 5 0
100 100 100 100 99 77 100 98 53 21 2 0 0 0 0 0 0 0 0 0 0 0 0 0 1 3 0 0 0 0 0 5 5 13 4 5 89 42 8 50 5 5 5 5 0
100 100 100 100 100 73 100 100 64 64 29 0 0 0 0 0 0 0 0 0 0 0 0 0 0 0 0 0 0 0 5 5 5 5 6 10 23 5 42 99 22 5 5 5 0
100 100 100 100 100 100 100 100 100 100 23 26 0 0 0 0 0 0 0 0 0 0 0 0 0 0 0 0 0 0 5 14 44 5 28 3 14 0 74 54 6 5 8 4 5
100 100 100 100 100 100 100 100 100 92 10 61 7 0 0 0 0 0 0 0 0 0 0 0 0 0 0 0 0 21 35 78 14 18 76 5 51 0 9 5 3 6 100 70 1